Flag for U.S.A. Weather past 2 weeks in Sevierville, Tennessee, U.S.A.

Now
84 °F

Partly sunny.


Feels Like: 92 °F
Forecast: 68 / 91 °F
Wind: 7 mph from Southwest

Location: McGhee Tyson Airport

Current Time: Aug 20, 2014 at 1:35:27 PM

Latest Report: Aug 20, 2014 at 12:53 PM


Visibility: 10 mi

Pressure: 30.00 "Hg

Humidity: 74%

Dew point: 75 °F

Location of SeviervilleLocation

Historic Weather in Sevierville — Graph

°F

Sevierville temperature yesterday

Maximum temperature yesterday: 83 °F (at 2:53 PM)
Minimum temperature yesterday: 69 °F (at 1:53 AM)
Average temperature yesterday: 74 °F

Past Weeks' High & Low Weather Summary

 TemperatureHumidityPressure
High87 °F (Aug 7, 2:53 PM)100% (Aug 7, 6:53 AM)30.10 "Hg (Aug 7, 6:53 AM)
Low59 °F (Aug 14, 3:53 AM)37% (Aug 5, 4:53 PM)29.80 "Hg (Aug 12, 4:53 PM)
Average74 °F79%29.96 "Hg
* Reported Aug 5 11:53 AM — Aug 20 11:53 AM, Sevierville, Weather by CustomWeather, © 2014

Note: Actual official high and low records may vary slightly from our data, if they occured in-between our weather recording intervals... More about our weather records

Advertising

Sevierville weather history for previous 24 hours

 ConditionsComfort  
Time TempWeatherWind HumidityBarometerVisibility
11:53 AM
Aug 20
84 °FPartly sunny.7 mph74%30.00 "Hg10 mi
10:53 AM81 °FPartly sunny.7 mph77%29.99 "Hg10 mi
9:53 AM79 °FPassing clouds.12 mph79%29.98 "Hg10 mi
8:53 AM75 °FBroken clouds.3 mph85%29.98 "Hg10 mi
7:53 AM71 °FPassing clouds.No wind90%29.96 "Hg10 mi
6:53 AM70 °FPassing clouds.No wind93%29.94 "Hg10 mi
5:53 AM70 °FClear.No wind93%29.92 "Hg10 mi
4:53 AM71 °FPassing clouds.No wind93%29.91 "Hg10 mi
3:53 AM70 °FClear.5 mph93%29.89 "Hg10 mi
2:53 AM71 °FPassing clouds.No wind93%29.90 "Hg10 mi
1:53 AM72 °FPassing clouds.3 mph93%29.93 "Hg10 mi
12:53 AM73 °FClear.No wind94%29.91 "Hg9 mi
11:53 PM
Aug 19
73 °FClear.No wind94%29.90 "Hg9 mi
10:53 PM73 °FPassing clouds.No wind94%29.90 "Hg10 mi
9:53 PM75 °FPassing clouds.No wind90%29.89 "Hg10 mi
8:53 PM74 °FPartly sunny.3 mph94%29.87 "Hg10 mi
7:53 PM80 °FThunderstorms. Broken clouds.5 mph67%29.87 "Hg10 mi
6:53 PM82 °FScattered clouds.6 mph65%29.85 "Hg10 mi
5:53 PM82 °FScattered clouds.6 mph63%29.84 "Hg10 mi
4:53 PM81 °FPartly sunny.7 mph69%29.85 "Hg10 mi
3:53 PM81 °FPartly sunny.9 mph65%29.86 "Hg10 mi
2:53 PM83 °FBroken clouds.7 mph65%29.87 "Hg10 mi
1:53 PM81 °FScattered clouds.6 mph69%29.89 "Hg10 mi
Weather by CustomWeather, © 2014

See weather overviewHow to use our weather pages